#timestamp,LO_Frequency,Hit,StdDev 
1698400815.3,286047000.6,N
1698400835.1,286047000.8,N
1698400855.9,286047002.5,N
1698400875.7,286046999.9,N
1698400895.6,286047000.2,N
1698400915.4,286047002.8,N
1698400935.2,286047002.4,N
1698400955.1,286047002.7,N
1698400956.0,286047002.7,N
1698400975.8,286046999.8,N
1698400995.6,286046998.2,N
1698401015.5,286047000.4,N
1698401035.3,286047000.7,N
1698401055.2,286046998.9,N
1698401075.9,286046998.5,N
1698401095.7,286046998.4,N
1698401115.6,286047000.6,N
1698401135.4,286046999.9,N
1698401155.2,286047002.7,N
1698401175.1,286047001.7,N
1698401176.0,286047001.7,N
1698401195.8,286047002.6,N
1698401215.7,286047002.6,N
1698401235.5,286047002.1,N
1698401255.3,286047000.1,N
1698401275.2,286047001.9,N
1698401295.9,286047001.9,N
1698401315.8,286047002.0,N
1698401335.6,286047002.0,N
1698401355.4,286047002.7,N
1698401375.3,286047000.0,N
1698401395.1,286047002.2,N
1698401396.0,286047002.2,N
1698401415.8,286047004.0,N
1698401435.7,286047004.0,N
1698401455.5,286047003.9,N
1698401475.4,286047001.3,N
1698401495.2,286047001.6,N
1698401515.0,286047001.5,N
1698401515.9,286047001.5,N
1698401535.8,286047002.0,N
1698401555.6,286047000.0,N
1698401575.4,286047000.8,N
1698401595.3,286047000.3,N
1698401615.1,286047002.7,N
1698401635.9,286046999.8,N
1698401655.7,286047000.0,N
1698401675.5,286047002.2,N
1698401695.4,286047002.8,N
1698401715.2,286046999.8,N
1698401735.1,286047000.0,N
1698401736.0,286047000.0,N
1698401755.8,286047000.5,N
1698401775.6,286047000.0,N
1698401795.5,286047000.0,N
1698401815.3,286047000.5,N
1698401835.1,286047000.3,N
1698401855.9,286047002.4,N
1698401875.7,286047000.4,N
1698401895.6,286047002.6,N
1698401915.4,286047002.6,N
1698401935.2,286047000.4,N
1698401955.1,286047000.2,N
1698401956.0,286047000.2,N
1698401975.8,286047000.4,N
1698401995.7,286047000.7,N
1698402015.5,286047001.0,N
1698402035.3,286047000.6,N
1698402055.2,286047002.6,N
1698402075.0,286047002.5,N
1698402075.9,286047002.5,N
1698402095.8,286047002.1,N
1698402115.6,286047001.8,N
1698402135.4,286047002.0,N
1698402155.3,286047002.2,N
1698402175.1,286046999.7,N
1698402195.9,286047002.2,N
1698402215.7,286047001.7,N
1698402235.5,286047001.9,N
1698402255.4,286047002.6,N
1698402275.2,286047002.5,N
1698402295.0,286047003.5,Y
1698402295.9,286047003.5,P
1698402315.8,286047002.2,N
1698402335.6,286047001.7,N
1698402355.5,286047004.4,Y
1698402375.3,286047000.1,P
1698402395.1,286047000.4,N
1698402415.9,286047000.5,N
1698402435.7,286046998.1,N
1698402455.5,286046999.0,N
1698402475.4,286047001.0,N
1698402495.2,286046998.6,N
1698402515.1,286047001.2,N
1698402516.0,286047001.2,N
1698402535.8,286047002.3,N
1698402555.6,286047002.8,N
1698402575.5,286047002.2,N
1698402595.3,286047002.4,N
1698402615.2,286047002.6,N
1698402635.9,286046999.9,N
1698402655.7,286047000.2,N
1698402675.6,286047000.3,N
1698402695.4,286047000.3,N
1698402715.2,286047001.2,N
1698402735.1,286046999.0,N
1698402736.0,286046999.0,N
1698402755.8,286046998.6,N
1698402775.7,286046998.7,N
1698402795.5,286046998.9,N
1698402815.3,286047001.2,N
1698402835.2,286046998.9,N
1698402855.0,286046998.8,N
1698402855.9,286046998.8,N
1698402875.8,286046998.9,N
1698402895.6,286046999.0,N
1698402915.4,286046996.8,N
1698402935.3,286046999.5,N
1698402955.1,286046999.6,N
1698402975.9,286046999.0,N
1698402995.7,286046998.3,N
1698403015.5,286046998.7,N
1698403035.4,286046998.8,N
1698403055.2,286047000.8,N
1698403075.0,286046998.1,N
1698403075.9,286046998.1,N
1698403095.8,286046998.9,N
1698403115.6,286046996.5,N
1698403135.5,286047001.1,N
1698403155.3,286046999.0,N
1698403175.1,286046998.3,N
1698403195.9,286046999.0,N
1698403215.7,286046998.2,N
1698403235.5,286046999.3,N
1698403255.4,286046996.5,Y
1698403275.2,286047000.7,P
1698403295.4,286047000.8,N
1698403315.3,286047002.8,P
1698403335.1,286047000.2,N
1698403355.9,286047000.0,N
1698403375.7,286046999.7,N
1698403395.5,286046999.8,N
1698403415.4,286047000.6,N
1698403435.2,286047002.8,N
1698403455.1,286047000.0,N
1698403456.0,286047000.0,N
1698403475.8,286047000.2,N
1698403495.6,286046999.7,N
1698403515.5,286047000.2,N
1698403535.3,286047002.3,N
1698403555.1,286047001.5,N
1698403575.9,286047002.6,N
1698403595.7,286047001.8,N
1698403615.6,286047001.5,N
1698403635.4,286047002.3,N
1698403655.2,286047002.1,N
1698403675.1,286047001.5,N
1698403676.0,286047001.5,N
1698403695.8,286047002.2,N
1698403715.7,286047002.7,N
1698403735.5,286046999.9,N
1698403755.3,286047000.1,N
1698403775.2,286047002.4,N
1698403795.9,286047002.0,N
1698403815.7,286047002.5,N
1698403835.6,286047002.2,N
1698403855.4,286047002.0,N
1698403875.2,286047002.6,N
1698403895.1,286047001.4,N
1698403896.0,286047001.4,N
1698403915.8,286047001.5,N
1698403935.7,286047003.2,Y
1698403955.5,286047003.5,P
1698403975.3,286047003.6,P
1698403995.2,286047003.7,P
1698404015.0,286047003.6,Y
1698404015.9,286047003.6,P
1698404035.8,286046998.6,P
1698404055.6,286046998.7,N
1698404075.4,286046998.5,N
1698404095.3,286046998.9,N
1698404115.1,286046999.3,N
1698404135.8,286046999.1,N
1698404155.7,286046996.5,N
1698404175.5,286046997.0,N
1698404195.4,286046999.5,N
1698404215.2,286046996.9,N
1698404235.0,286046998.8,N
1698404235.9,286046998.8,N
1698404255.8,286046996.8,N
1698404275.6,286046999.3,N
1698404295.4,286046999.3,N
1698404315.3,286046999.4,N
1698404335.1,286046999.1,N
1698404355.9,286046999.5,N
1698404375.7,286046999.0,N
1698404395.5,286046998.8,N
